Location: Newark
(50.8385°N, 4.3762°E)
Time: 21:02:33
(UTC+00:00)

Envisat - Visible Passes

Search period start: 15 September 2019 00:00
Search period end: 25 September 2019 00:00
Orbit: 764 x 766 km, 98.1° (Epoch: 15 September)

Date Brightness Start Highest point End Pass type
(mag) Time Alt. Az. Time Alt. Az. Time Alt. Az.
15 Sep 5.9 19:13:31 10° SW 19:16:50 17° W 19:20:08 10° NW visible
16 Sep 5.0 18:35:06 10° SSW 18:39:40 33° W 18:44:16 10° NNW visible
17 Sep 6.5 19:42:19 10° W 19:42:44 10° W 19:43:11 10° WNW visible
18 Sep 5.8 19:01:38 10° SW 19:05:25 21° W 19:09:15 10° NW visible
19 Sep 4.6 18:23:34 10° SSW 18:28:20 40° W 18:33:09 10° NNW visible
20 Sep 6.1 19:29:03 10° WSW 19:31:18 13° W 19:33:33 10° WNW visible
21 Sep 5.4 18:49:52 10° SSW 18:54:03 25° W 18:58:16 10° NW visible
22 Sep 4.1 18:12:06 10° S 18:17:01 50° W 18:21:59 10° NNW visible
23 Sep 6.0 19:16:49 10° SW 19:19:53 16° W 19:22:57 10° NW visible
24 Sep 5.1 18:38:13 10° SSW 18:42:41 31° W 18:47:12 10° NNW visible
